| time (UTC) | temp C | wind direction | speed KPH | gust KPH | rain 1hr cm | rain 24hr cm | rain mn cm | humidity % | barometer mb |
| 20260503200519 | 16 | 0.0 | 1.6 | 0.00 | 0.00 | 0.00 | 44 | 1015.4 | |
| 20260503195519 | 16 | 0.0 | 3.2 | 0.00 | 0.00 | 0.00 | 40 | 1015.4 | |
| 20260503194519 | 16 | 0.0 | 4.8 | 0.00 | 0.00 | 0.00 | 43 | 1015.6 | |
| 20260503193519 | 17 | 0.0 | 4.8 | 0.00 | 0.00 | 0.00 | 46 | 1016.0 | |
| 20260503192518 | 17 | 0.0 | 4.8 | 0.00 | 0.00 | 0.00 | 43 | 1016.2 | |
| 20260503191518 | 17 | 0.0 | 1.6 | 0.00 | 0.00 | 0.00 | 42 | 1016.5 | |
| 20260503190518 | 16 | 203 | 1.6 | 4.8 | 0.00 | 0.00 | 0.00 | 48 | 1016.5 |
| 20260503185538 | 16 | 225 | 1.6 | 8.0 | 0.00 | 0.00 | 0.00 | 40 | 1016.6 |
| 20260503184518 | 16 | 0.0 | 3.2 | 0.00 | 0.00 | 0.00 | 44 | 1016.8 | |
| 20260503183518 | 16 | 225 | 1.6 | 4.8 | 0.00 | 0.00 | 0.00 | 42 | 1017.0 |
| 20260503182518 | 17 | 203 | 3.2 | 11.3 | 0.00 | 0.00 | 0.00 | 42 | 1016.9 |
| 20260503181518 | 17 | 225 | 1.6 | 9.7 | 0.00 | 0.00 | 0.00 | 42 | 1017.1 |
| 20260503180538 | 17 | 203 | 1.6 | 3.2 | 0.00 | 0.00 | 0.00 | 42 | 1017.3 |
| 20260503175518 | 17 | 203 | 1.6 | 4.8 | 0.00 | 0.00 | 0.00 | 43 | 1017.4 |
| 20260503174518 | 16 | 203 | 3.2 | 11.3 | 0.00 | 0.00 | 0.00 | 45 | 1017.4 |
| 20260503173518 | 16 | 203 | 4.8 | 14.5 | 0.00 | 0.00 | 0.00 | 44 | 1017.6 |
| 20260503172518 | 16 | 203 | 3.2 | 19.3 | 0.00 | 0.00 | 0.00 | 42 | 1017.9 |
| 20260503171518 | 16 | 203 | 1.6 | 9.7 | 0.00 | 0.00 | 0.00 | 44 | 1018.0 |
| 20260503170518 | 16 | 203 | 1.6 | 8.0 | 0.00 | 0.00 | 0.00 | 43 | 1018.3 |
| 20260503150518 | 14 | 0.0 | 3.2 | 0.00 | 0.00 | 0.00 | 54 | 1020.0 | |
| 20260503130518 | 8 | 0.0 | 1.6 | 0.00 | 0.00 | 0.00 | 73 | 1019.5 | |
| 20260503110538 | 2 | 0.0 | 0.0 | 0.00 | 0.00 | 0.00 | 83 | 1018.8 | |
| 20260503081518 | 2 | 0.0 | 1.6 | 0.00 | 0.00 | 0.00 | 86 | 1018.2 | |
| 20260503080538 | 1 | 0.0 | 0.0 | 0.00 | 0.00 | 0.00 | 86 | 1018.2 | |
| 20260503072518 | 2 | 0.0 | 0.0 | 0.00 | 0.00 | 0.00 | 85 | 1018.3 | |
| 20260503071518 | 2 | 0.0 | 0.0 | 0.00 | 0.00 | 0.00 | 85 | 1018.3 | |
| 20260503070519 | 2 | 0.0 | 0.0 | 0.00 | 0.00 | 0.00 | 85 | 1018.3 | |
| 20260503054522 | 1 | 0.0 | 0.0 | 0.00 | 0.00 | 0.00 | 82 | 1018.5 | |
| 20260503053518 | 1 | 0.0 | 0.0 | 0.00 | 0.00 | 0.00 | 82 | 1018.5 | |
| 20260503052517 | 2 | 0.0 | 0.0 | 0.00 | 0.00 | 0.00 | 82 | 1018.5 | |
| 20260503051538 | 2 | 0.0 | 0.0 | 0.00 | 0.00 | 0.00 | 81 | 1018.5 | |
| 20260503050518 | 2 | 0.0 | 0.0 | 0.00 | 0.00 | 0.00 | 81 | 1018.5 | |
| 20260503045518 | 3 | 0.0 | 0.0 | 0.00 | 0.00 | 0.00 | 81 | 1018.6 | |
| 20260503044518 | 3 | 0.0 | 0.0 | 0.00 | 0.00 | 0.00 | 81 | 1018.6 | |
| 20260503043518 | 3 | 0.0 | 0.0 | 0.00 | 0.00 | 0.00 | 80 | 1018.6 | |
| 20260503042517 | 3 | 0.0 | 0.0 | 0.00 | 0.00 | 0.00 | 80 | 1018.6 | |
| 20260503041521 | 3 | 0.0 | 0.0 | 0.00 | 0.00 | 0.00 | 79 | 1018.6 | |
| 20260503040518 | 3 | 0.0 | 0.0 | 0.00 | 0.00 | 0.00 | 74 | 1018.5 | |
| 20260503035539 | 4 | 0.0 | 0.0 | 0.00 | 0.00 | 0.00 | 72 | 1018.6 | |
| 20260503034519 | 5 | 0.0 | 0.0 | 0.00 | 0.00 | 0.00 | 69 | 1018.5 | |
| 20260503033518 | 5 | 0.0 | 0.0 | 0.00 | 0.00 | 0.00 | 69 | 1018.5 | |
| 20260503032519 | 5 | 0.0 | 0.0 | 0.00 | 0.00 | 0.00 | 67 | 1018.5 | |
| 20260503031519 | 5 | 0.0 | 0.0 | 0.00 | 0.00 | 0.00 | 67 | 1018.5 | |
| 20260503030519 | 5 | 0.0 | 0.0 | 0.00 | 0.00 | 0.00 | 67 | 1018.5 | |
| 20260503025518 | 5 | 0.0 | 0.0 | 0.00 | 0.00 | 0.00 | 70 | 1018.4 | |
| 20260503024518 | 5 | 0.0 | 0.0 | 0.00 | 0.00 | 0.00 | 69 | 1018.5 | |
| 20260503023519 | 5 | 0.0 | 0.0 | 0.00 | 0.00 | 0.00 | 66 | 1018.5 | |
| 20260503022518 | 5 | 0.0 | 0.0 | 0.00 | 0.00 | 0.00 | 65 | 1018.4 | |
| 20260503021518 | 6 | 0.0 | 0.0 | 0.00 | 0.00 | 0.00 | 64 | 1018.4 | |
| 20260503020518 | 6 | 0.0 | 0.0 | 0.00 | 0.00 | 0.00 | 63 | 1018.3 | |
| 20260503015539 | 6 | 0.0 | 0.0 | 0.00 | 0.00 | 0.00 | 62 | 1018.2 | |
| 20260503014519 | 6 | 0.0 | 1.6 | 0.00 | 0.00 | 0.00 | 62 | 1018.2 | |
| 20260503013518 | 7 | 0.0 | 1.6 | 0.00 | 0.00 | 0.00 | 62 | 1018.0 | |
| 20260503012518 | 7 | 0.0 | 1.6 | 0.00 | 0.00 | 0.00 | 62 | 1018.0 | |
| 20260503011518 | 7 | 0 | 1.6 | 4.8 | 0.00 | 0.00 | 0.00 | 60 | 1017.9 |
| 20260503010523 | 7 | 23 | 1.6 | 6.4 | 0.00 | 0.00 | 0.00 | 61 | 1017.9 |
| 20260503005520 | 7 | 0 | 1.6 | 3.2 | 0.00 | 0.00 | 0.00 | 60 | 1017.8 |
| 20260503004518 | 8 | 338 | 3.2 | 4.8 | 0.00 | 0.00 | 0.00 | 59 | 1017.7 |
| 20260503003518 | 8 | 23 | 3.2 | 9.7 | 0.00 | 0.00 | 0.00 | 58 | 1017.7 |
| 20260503002519 | 8 | 0 | 3.2 | 9.7 | 0.00 | 0.00 | 0.00 | 57 | 1017.8 |
| 20260503001539 | 8 | 23 | 4.8 | 11.3 | 0.00 | 0.00 | 0.00 | 56 | 1017.6 |
| 20260503000518 | 8 | 0 | 4.8 | 12.9 | 0.00 | 0.00 | 0.00 | 56 | 1017.5 |
| 20260502235518 | 8 | 338 | 3.2 | 12.9 | 0.00 | 0.00 | 0.00 | 55 | 1017.4 |
| 20260502234538 | 9 | 0 | 3.2 | 9.7 | 0.00 | 0.00 | 0.00 | 54 | 1017.3 |
| 20260502233518 | 9 | 338 | 4.8 | 14.5 | 0.00 | 0.00 | 0.00 | 53 | 1017.2 |
| 20260502232538 | 10 | 338 | 9.7 | 16.1 | 0.00 | 0.00 | 0.00 | 52 | 1017.2 |
| 20260502231518 | 10 | 23 | 6.4 | 11.3 | 0.00 | 0.00 | 0.00 | 53 | 1017.1 |
| 20260502230519 | 10 | 45 | 6.4 | 14.5 | 0.00 | 0.00 | 0.00 | 52 | 1017.2 |
| 20260502225538 | 10 | 293 | 3.2 | 11.3 | 0.00 | 0.00 | 0.00 | 51 | 1017.0 |
| 20260502224519 | 10 | 0 | 4.8 | 14.5 | 0.00 | 0.00 | 0.00 | 50 | 1017.1 |
| 20260502223519 | 10 | 338 | 4.8 | 11.3 | 0.00 | 0.00 | 0.00 | 51 | 1017.0 |
| 20260502222519 | 10 | 338 | 4.8 | 12.9 | 0.00 | 0.00 | 0.00 | 50 | 1016.9 |
| 20260502221518 | 10 | 0 | 6.4 | 17.7 | 0.00 | 0.00 | 0.00 | 49 | 1016.9 |
| 20260502220518 | 11 | 23 | 6.4 | 17.7 | 0.00 | 0.00 | 0.00 | 47 | 1016.9 |
| 20260502215518 | 11 | 23 | 8.0 | 17.7 | 0.00 | 0.00 | 0.00 | 48 | 1016.9 |
| 20260502214518 | 11 | 293 | 4.8 | 11.3 | 0.00 | 0.00 | 0.00 | 49 | 1016.8 |
| 20260502213539 | 10 | 0 | 6.4 | 12.9 | 0.00 | 0.00 | 0.00 | 49 | 1016.7 |
| 20260502212538 | 10 | 293 | 4.8 | 16.1 | 0.00 | 0.00 | 0.00 | 49 | 1016.6 |
| 20260502211519 | 11 | 0 | 6.4 | 19.3 | 0.00 | 0.00 | 0.00 | 48 | 1016.6 |
| 20260502210539 | 11 | 23 | 3.2 | 9.7 | 0.00 | 0.00 | 0.00 | 50 | 1016.7 |
| 20260502205518 | 10 | 23 | 4.8 | 19.3 | 0.00 | 0.00 | 0.00 | 48 | 1016.6 |
| 20260502204518 | 10 | 0 | 4.8 | 11.3 | 0.00 | 0.00 | 0.00 | 49 | 1016.8 |
| 20260502203538 | 11 | 338 | 4.8 | 14.5 | 0.00 | 0.00 | 0.00 | 48 | 1016.7 |
| 20260502202519 | 10 | 293 | 3.2 | 12.9 | 0.00 | 0.00 | 0.00 | 49 | 1016.8 |
| 20260502201518 | 10 | 0 | 6.4 | 11.3 | 0.00 | 0.00 | 0.00 | 49 | 1016.8 |